H1 CPF 2 NER 2021 9 7 9 250 01 glonass116 H2 0907001 9116 36111 2021 9 7 0 0 0 2021 9 10 23 45 0 900 1 1 0 0 0 1 H9 10 0 59464 0.00000 0 -5783545.423 15567842.447 -19360231.695 10 0 59464 900.00000 0 -7541121.442 17007022.266 -17449103.766 10 0 59464 1800.00000 0 -8998322.437 18399834.898 -15198997.012 10 0 59464 2700.00000 0 -10143177.005 19684851.945 -12653576.090 10 0 59464 3600.00000 0 -10976456.106 20801536.998 -9862260.396 10 0 59464 4500.00000 0 -11511379.099 21692822.683 -6879266.160 10 0 59464 5400.00000 0 -11772800.476 22307563.144 -3762553.136 10 0 59464 6300.00000 0 -11795912.128 22602758.102 -572696.318 10 0 59464 7200.00000 0 -11624516.662 22545454.108 2628295.052 10 0 59464 8100.00000 0 -11308945.584 22114242.004 5778187.720 10 0 59464 9000.00000 0 -10903711.246 21300286.590 8815739.740 10 0 59464 9900.00000 0 -10464992.800 20107844.278 11681896.402 10 0 59464 10800.00000 0 -10048063.432 18554246.157 14320942.870 10 0 59464 11700.00000 0 -9704768.566 16669346.544 16681590.554 10 0 59464 12600.00000 0 -9481162.368 14494459.695 18717975.641 10 0 59464 13500.00000 0 -9415403.024 12080828.868 20390550.330 10 0 59464 14400.00000 0 -9535996.067 9487691.446 21666849.550 10 0 59464 15300.00000 0 -9860460.138 6780020.755 22522118.571 10 0 59464 16200.00000 0 -10394471.567 4026038.377 22939789.830 10 0 59464 17100.00000 0 -11131523.927 1294600.129 22911800.263 10 0 59464 18000.00000 0 -12053116.923 -1347436.005 22438743.495 10 0 59464 18900.00000 0 -13129466.854 -3837751.355 21529854.420 10 0 59464 19800.00000 0 -14320708.949 -6120912.709 20202826.731 10 0 59464 20700.00000 0 -15578541.294 -8150426.578 18483467.139 10 0 59464 21600.00000 0 -16848241.605 -9890417.388 16405192.937 10 0 59464 22500.00000 0 -18070972.425 -11316861.002 14008382.525 10 0 59464 23400.00000 0 -19186278.117 -12418323.480 11339591.312 10 0 59464 24300.00000 0 -20134668.960 -13196175.633 8450647.966 10 0 59464 25200.00000 0 -20860183.745 -13664275.816 5397648.361 10 0 59464 26100.00000 0 -21312823.094 -13848135.516 2239866.694 10 0 59464 27000.00000 0 -21450750.980 -13783604.061 -961395.091 10 0 59464 27900.00000 0 -21242171.547 -13515128.865 -4143997.183 10 0 59464 28800.00000 0 -20666801.904 -13093665.415 -7246167.718 10 0 59464 29700.00000 0 -19716878.529 -12574325.888 -10207700.987 10 0 59464 30600.00000 0 -18397654.384 -12013866.188 -12971124.654 10 0 59464 31500.00000 0 -16727365.332 -11468117.813 -15482813.203 10 0 59464 32400.00000 0 -14736666.544 -10989473.173 -17694026.133 10 0 59464 33300.00000 0 -12467561.706 -10624530.551 -19561850.995 10 0 59464 34200.00000 0 -9971869.020 -10411997.971 -21050033.274 10 0 59464 35100.00000 0 -7309287.056 -10380944.360 -22129677.494 10 0 59464 36000.00000 0 -4545140.073 -10549471.620 -22779806.411 10 0 59464 36900.00000 0 -1747895.644 -10923863.675 -22987767.812 10 0 59464 37800.00000 0 1013443.297 -11498248.561 -22749481.324 10 0 59464 38700.00000 0 3671964.732 -12254788.246 -22069520.508 10 0 59464 39600.00000 0 6165384.036 -13164388.831 -20961028.481 10 0 59464 40500.00000 0 8438386.239 -14187902.058 -19445468.328 10 0 59464 41400.00000 0 10444677.649 -15277768.453 -17552212.548 10 0 59464 42300.00000 0 12148662.096 -16380033.779 -15317978.847 10 0 59464 43200.00000 0 13526672.724 -17436654.639 -12786122.475 10 0 59464 44100.00000 0 14567708.527 -18387996.631 -10005798.160 10 0 59464 45000.00000 0 15273645.393 -19175419.970 -7031007.461 10 0 59464 45900.00000 0 15658913.478 -19743843.456 -3919549.740 10 0 59464 46800.00000 0 15749655.151 -20044178.235 -731897.106 10 0 59464 47700.00000 0 15582399.663 -20035527.952 2469984.467 10 0 59464 48600.00000 0 15202311.251 -19687061.566 5623844.472 10 0 59464 49500.00000 0 14661085.488 -18979478.820 8668363.495 10 0 59464 50400.00000 0 14014583.628 -17906005.529 11544350.663 10 0 59464 51300.00000 0 13320305.822 -16472875.779 14195898.995 10 0 59464 52200.00000 0 12634810.794 -14699279.796 16571475.603 10 0 59464 53100.00000 0 12011191.675 -12616778.968 18624925.112 10 0 59464 54000.00000 0 11496715.133 -10268211.880 20316366.690 10 0 59464 54900.00000 0 11130723.717 -7706136.569 21612967.384 10 0 59464 55800.00000 0 10942890.009 -4990873.694 22489576.993 10 0 59464 56700.00000 0 10951896.102 -2188231.744 22929212.664 10 0 59464 57600.00000 0 11164593.834 632991.491 22923384.341 10 0 59464 58500.00000 0 11575680.862 3403627.744 22472255.268 10 0 59464 59400.00000 0 12167905.993 6056769.245 21584634.894 10 0 59464 60300.00000 0 12912794.912 8530303.367 20277804.626 10 0 59464 61200.00000 0 13771865.678 10769246.466 18577179.964 10 0 59464 62100.00000 0 14698282.836 12727780.961 16515815.583 10 0 59464 63000.00000 0 15638880.590 14370912.073 14133762.799 10 0 59464 63900.00000 0 16536469.950 15675676.306 11477291.731 10 0 59464 64800.00000 0 17332332.801 16631852.551 8597993.019 10 0 59464 65700.00000 0 17968797.862 17242147.369 5551776.321 10 0 59464 66600.00000 0 18391789.919 17521847.867 2397785.011 10 0 59464 67500.00000 0 18553244.758 17497957.955 -802751.878 10 0 59464 68400.00000 0 18413287.723 17207855.363 -3987708.128 10 0 59464 69300.00000 0 17942083.717 16697526.837 -7095265.873 10 0 59464 70200.00000 0 17121280.240 16019456.648 -10065114.684 10 0 59464 71100.00000 0 15944982.062 15230257.993 -12839620.819 10 0 59464 72000.00000 0 14420215.923 14388147.536 -15364943.791 10 0 59464 72900.00000 0 12566864.875 13550369.764 -17592078.732 10 0 59464 73800.00000 0 10417074.105 12770679.742 -19477804.558 10 0 59464 74700.00000 0 8014152.137 12096990.189 -20985519.823 10 0 59464 75600.00000 0 5411012.201 11569281.752 -22085950.524 10 0 59464 76500.00000 0 2668217.574 11217864.160 -22757716.594 10 0 59464 77400.00000 0 -148288.821 11062061.206 -22987746.431 10 0 59464 78300.00000 0 -2969677.406 11109374.714 -22771531.771 10 0 59464 79200.00000 0 -5726845.110 11355162.677 -22113217.990 10 0 59464 80100.00000 0 -8353041.227 11782845.292 -21025527.955 10 0 59464 81000.00000 0 -10786397.910 12364630.563 -19529520.563 10 0 59464 81900.00000 0 -12972261.099 13062729.444 -17654188.029 10 0 59464 82800.00000 0 -14865225.551 13831009.880 -15435899.112 10 0 59464 83700.00000 0 -16430789.890 14617020.590 -12917698.315 10 0 59464 84600.00000 0 -17646563.201 15364299.650 -10148473.976 10 0 59464 85500.00000 0 -18502973.084 16014870.658 -7182010.935 10 0 59465 0.00000 0 -19003446.098 16511821.077 -4075945.923 10 0 59465 900.00000 0 -19164053.340 16801853.178 -890645.508 10 0 59465 1800.00000 0 -19012637.034 16837700.078 2311970.253 10 0 59465 2700.00000 0 -18587454.834 16580302.299 5469636.466 10 0 59465 3600.00000 0 -17935400.567 16000653.651 8520959.232 10 0 59465 4500.00000 0 -17109876.671 15081236.126 11406614.596 10 0 59465 5400.00000 0 -16168409.238 13816982.732 14070506.543 10 0 59465 6300.00000 0 -15170107.038 12215726.430 16460860.983 10 0 59465 7200.00000 0 -14173072.418 10298115.360 18531233.974 10 0 59465 8100.00000 0 -13231873.811 8096997.049 20241414.487 10 0 59465 9000.00000 0 -12395186.644 5656296.559 21558204.275 10 0 59465 9900.00000 0 -11703702.095 3029434.920 22456059.948 10 0 59465 10800.00000 0 -11188391.545 277353.157 22917585.281 10 0 59465 11700.00000 0 -10869199.333 -2533776.339 22933864.753 10 0 59465 12600.00000 0 -10754218.328 -5335056.412 22504632.300 10 0 59465 13500.00000 0 -10839382.360 -8057486.205 21638272.553 10 0 59465 14400.00000 0 -11108687.876 -10634588.522 20351654.774 10 0 59465 15300.00000 0 -11534934.979 -13004935.050 18669802.915 10 0 59465 16200.00000 0 -12080956.233 -15114465.401 16625408.218 10 0 59465 17100.00000 0 -12701281.194 -16918504.477 14258193.648 10 0 59465 18000.00000 0 -13344166.328 -18383395.102 11614142.344 10 0 59465 18900.00000 0 -13953904.593 -19487678.880 8744604.846 10 0 59465 19800.00000 0 -14473317.166 -20222777.100 5705302.195 10 0 59465 20700.00000 0 -14846322.013 -20593144.156 2555244.259 10 0 59465 21600.00000 0 -15020470.703 -20615888.176 -644415.782 10 0 59465 22500.00000 0 -14949346.096 -20319875.740 -3831568.446 10 0 59465 23400.00000 0 -14594719.331 -19744359.174 -6944353.196 10 0 59465 24300.00000 0 -13928374.636 -18937184.957 -9922358.370 10 0 59465 25200.00000 0 -12933524.425 -17952659.224 -12707792.376 10 0 59465 26100.00000 0 -11605754.377 -16849160.648 -15246603.323 10 0 59465 27000.00000 0 -9953457.924 -15686601.431 -17489525.436 10 0 59465 27900.00000 0 -7997740.892 -14523843.252 -19393032.230 10 0 59465 28800.00000 0 -5771799.237 -13416176.734 -20920178.221 10 0 59465 29700.00000 0 -3319794.704 -12412970.096 -22041313.310 10 0 59465 30600.00000 0 -695274.005 -11555585.333 -22734656.494 10 0 59465 31500.00000 0 2040803.847 -10875649.060 -22986718.091 10 0 59465 32400.00000 0 4822351.328 -10393750.135 -22792562.655 10 0 59465 33300.00000 0 7580653.691 -10118618.426 -22155907.515 10 0 59465 34200.00000 0 10246984.943 -10046818.957 -21089054.912 10 0 59465 35100.00000 0 12755230.948 -10162974.235 -19612658.678 10 0 59465 36000.00000 0 15044411.549 -10440505.438 -17755329.417 10 0 59465 36900.00000 0 17060997.471 -10842861.442 -15553085.161 10 0 59465 37800.00000 0 18760926.099 -11325184.143 -13048657.461 10 0 59465 38700.00000 0 20111232.502 -11836339.987 -10290665.641 10 0 59465 39600.00000 0 21091227.787 -12321232.053 -7332674.809 10 0 59465 40500.00000 0 21693175.794 -12723294.873 -4232155.584 10 0 59465 41400.00000 0 21922440.013 -12987066.161 -1049365.686 10 0 59465 42300.00000 0 21797094.870 -13060726.131 2153824.564 10 0 59465 43200.00000 0 21347018.185 -12898496.124 5315139.561 10 0 59465 44100.00000 0 20612503.561 -12462794.115 8373114.457 10 0 59465 45000.00000 0 19642451.779 -11726054.875 11268295.474 10 0 59465 45900.00000 0 18492218.178 -10672136.717 13944400.474 10 0 59465 46800.00000 0 17221207.427 -9297254.301 16349416.656 10 0 59465 47700.00000 0 15890317.697 -7610397.111 18436613.560 10 0 59465 48600.00000 0 14559342.373 -5633214.969 20165451.556 10 0 59465 49500.00000 0 13284438.938 -3399374.394 21502368.264 10 0 59465 50400.00000 0 12115771.559 -953411.980 22421427.851 10 0 59465 51300.00000 0 11095426.216 1650868.103 22904821.083 10 0 59465 52200.00000 0 10255685.480 4352386.382 22943206.959 10 0 59465 53100.00000 0 9617734.730 7085087.758 22535889.778 10 0 59465 54000.00000 0 9190853.294 9780453.618 21690828.708 10 0 59465 54900.00000 0 8972123.579 12370122.650 20424479.955 10 0 59465 55800.00000 0 8946669.534 14788512.063 18761474.783 10 0 59465 56700.00000 0 9088413.568 16975331.003 16734139.654 10 0 59465 57600.00000 0 9361319.373 18877882.389 14381867.646 10 0 59465 58500.00000 0 9721067.679 20453058.053 11750353.209 10 0 59465 59400.00000 0 10117093.853 21668944.840 8890704.908 10 0 59465 60300.00000 0 10494900.957 22505975.474 5858453.122 10 0 59465 61200.00000 0 10798550.298 22957576.841 2712472.004 10 0 59465 62100.00000 0 10973223.940 23030289.427 -486163.450 10 0 59465 63000.00000 0 10967750.583 22743353.708 -3675362.930 10 0 59465 63900.00000 0 10736987.684 22127781.590 -6793225.694 10 0 59465 64800.00000 0 10243958.785 21224952.598 -9779241.284 10 0 59465 65700.00000 0 9461655.222 20084794.372 -12575462.644 10 0 59465 66600.00000 0 8374425.616 18763624.327 -15127628.745 10 0 59465 67500.00000 0 6978893.814 17321743.451 -17386215.065 10 0 59465 68400.00000 0 5284365.710 15820883.333 -19307391.750 10 0 59465 69300.00000 0 3312706.815 14321613.475 -20853871.179 10 0 59465 70200.00000 0 1097694.475 12880817.367 -21995628.934 10 0 59465 71100.00000 0 -1316129.560 11549342.624 -22710484.695 10 0 59465 72000.00000 0 -3875059.675 10369923.186 -22984532.115 10 0 59465 72900.00000 0 -6518214.788 9375459.955 -22812409.714 10 0 59465 73800.00000 0 -9179833.302 8587731.313 -22197407.573 10 0 59465 74700.00000 0 -11791780.340 8016587.046 -21151407.684 10 0 59465 75600.00000 0 -14286164.280 7659658.983 -19694658.735 10 0 59465 76500.00000 0 -16597954.702 7502600.201 -17855389.152 10 0 59465 77400.00000 0 -18667493.532 7519842.504 -15669265.232 10 0 59465 78300.00000 0 -20442795.315 7675840.175 -13178704.157 10 0 59465 79200.00000 0 -21881541.026 7926747.490 -10432054.495 10 0 59465 80100.00000 0 -22952682.217 8222459.050 -7482659.617 10 0 59465 81000.00000 0 -23637588.486 8508926.541 -4387821.892 10 0 59465 81900.00000 0 -23930690.197 8730653.509 -1207687.679 10 0 59465 82800.00000 0 -23839589.496 8833262.044 1995924.904 10 0 59465 83700.00000 0 -23384635.143 8766021.929 5160732.209 10 0 59465 84600.00000 0 -22597979.313 8484234.212 8225201.237 10 0 59465 85500.00000 0 -21522156.450 7951367.320 11129751.282 10 0 59466 0.00000 0 -20208244.559 7140854.255 13817916.985 10 0 59466 900.00000 0 -18713686.825 6037473.307 16237449.874 10 0 59466 1800.00000 0 -17099865.858 4638254.301 18341335.776 10 0 59466 2700.00000 0 -15429533.151 2952868.845 20088709.114 10 0 59466 3600.00000 0 -13764201.702 1003489.397 21445645.779 10 0 59466 4500.00000 0 -12161611.757 -1175879.312 22385819.561 10 0 59466 5400.00000 0 -10673375.556 -3540568.800 22891009.899 10 0 59466 6300.00000 0 -9342899.420 -6036867.504 22951451.588 10 0 59466 7200.00000 0 -8203669.550 -8604026.640 22566020.144 10 0 59466 8100.00000 0 -7277972.423 -11176568.442 21742249.711 10 0 59466 9000.00000 0 -6576102.313 -13686801.404 20496183.467 10 0 59466 9900.00000 0 -6096088.050 -16067438.449 18852059.611 10 0 59466 10800.00000 0 -5823949.293 -18254209.753 16841839.060 10 0 59466 11700.00000 0 -5734470.470 -20188362.101 14504583.877 10 0 59466 12600.00000 0 -5792458.852 -21818941.186 11885698.363 10 0 59466 13500.00000 0 -5954432.911 -23104762.298 9036047.329 10 0 59466 14400.00000 0 -6170669.064 -24015987.756 6010968.463 10 0 59466 15300.00000 0 -6387519.827 -24535245.618 2869197.933 10 0 59466 16200.00000 0 -6549904.926 -24658243.518 -328269.923 10 0 59466 17100.00000 0 -6603869.625 -24393852.446 -3519366.631 10 0 59466 18000.00000 0 -6499101.682 -23763657.489 -6642154.106 10 0 59466 18900.00000 0 -6191300.097 -22800994.933 -9636026.120 10 0 59466 19800.00000 0 -5644295.029 -21549516.539 -12442883.310 10 0 59466 20700.00000 0 -4831828.849 -20061341.622 -15008258.749 10 0 59466 21600.00000 0 -3738922.508 -18394874.662 -17282372.387 10 0 59466 22500.00000 0 -2362768.857 -16612379.976 -19221094.103 10 0 59466 23400.00000 0 -713114.391 -14777414.987 -20786797.010 10 0 59466 24300.00000 0 1187887.729 -12952229.238 -21949084.910 10 0 59466 25200.00000 0 3306348.560 -11195237.455 -22685380.275 10 0 59466 26100.00000 0 5597811.440 -9558671.775 -22981361.736 10 0 59466 27000.00000 0 8008869.988 -8086510.523 -22831242.919 10 0 59466 27900.00000 0 10479170.066 -6812769.339 -22237887.314 10 0 59466 28800.00000 0 12943713.631 -5760225.416 -21212756.835 10 0 59466 29700.00000 0 15335369.847 -4939627.472 -19775694.737 10 0 59466 30600.00000 0 17587489.982 -4349423.920 -17954546.513 10 0 59466 31500.00000 0 19636517.865 -3976020.147 -15784625.498 10 0 59466 32400.00000 0 21424487.692 -3794553.621 -13308032.791 10 0 59466 33300.00000 0 22901305.196 -3770153.791 -10572843.996 10 0 59466 34200.00000 0 24026716.861 -3859633.373 -7632178.068 10 0 59466 35100.00000 0 24771884.706 -4013539.158 -4543166.019 10 0 59466 36000.00000 0 25120500.442 -4178475.189 -1365839.412 10 0 59466 36900.00000 0 25069391.998 -4299599.393 1838039.486 10 0 59466 37800.00000 0 24628596.855 -4323187.194 5006182.708 10 0 59466 38700.00000 0 23820899.001 -4199152.638 8076992.760 10 0 59466 39600.00000 0 22680849.140 -3883419.259 10990765.489 10 0 59466 40500.00000 0 21253309.569 -3340039.256 13690855.602 10 0 59466 41400.00000 0 19591585.279 -2542970.235 16124781.596 10 0 59466 42300.00000 0 17755220.230 -1477433.381 18245248.107 10 0 59466 43200.00000 0 15807551.714 -140794.697 20011065.667 10 0 59466 44100.00000 0 13813125.667 1457068.806 21387950.055 10 0 59466 45000.00000 0 11835081.400 3293934.321 22349185.893 10 0 59466 45900.00000 0 9932615.103 5335923.798 22876142.091 10 0 59466 46800.00000 0 8158627.823 7538691.816 22958629.627 10 0 59466 47700.00000 0 6557655.660 9849061.871 22595095.194 10 0 59466 48600.00000 0 5164167.748 12207043.505 21792647.468 10 0 59466 49500.00000 0 4001302.054 14548146.906 20566915.758 10 0 59466 50400.00000 0 3080090.635 16805899.070 18941744.000 10 0 59466 51300.00000 0 2399205.449 18914457.262 16948726.049 10 0 59466 52200.00000 0 1945233.959 20811211.435 14626591.155 10 0 59466 53100.00000 0 1693471.763 22439267.438 12020451.444 10 0 59466 54000.00000 0 1609197.656 23749707.842 9180925.761 10 0 59466 54900.00000 0 1649376.431 24703536.316 6163156.716 10 0 59466 55800.00000 0 1764716.729 25273224.536 3025739.989 10 0 59466 56700.00000 0 1901996.275 25443797.227 -170413.343 10 0 59466 57600.00000 0 2006555.649 25213410.200 -3363259.288 10 0 59466 58500.00000 0 2024854.611 24593397.433 -6490825.038 10 0 59466 59400.00000 0 1906982.420 23607785.531 -9492411.148 10 0 59466 60300.00000 0 1609015.510 22292296.155 -12309768.377 10 0 59466 61200.00000 0 1095122.490 20692878.445 -14888226.172 10 0 59466 62100.00000 0 339327.020 18863833.020 -17177751.049 10 0 59466 63000.00000 0 -673146.431 16865606.057 -19133914.552 10 0 59466 63900.00000 0 -1945001.343 14762345.602 -20718752.289 10 0 59466 64800.00000 0 -3466510.024 12619321.883 -21901497.868 10 0 59466 65700.00000 0 -5215682.822 10500318.863 -22659177.963 10 0 59466 66600.00000 0 -7158959.788 8465105.278 -22977057.368 10 0 59466 67500.00000 0 -9252397.290 6567089.878 -22848925.726 10 0 59466 68400.00000 0 -11443301.456 4851257.821 -22277220.501 10 0 59466 69300.00000 0 -13672241.623 3352473.471 -21272983.699 10 0 59466 70200.00000 0 -15875361.159 2094219.592 -19855652.865 10 0 59466 71100.00000 0 -17986890.414 1087824.760 -18052689.836 10 0 59466 72000.00000 0 -19941757.812 332210.657 -15899053.830 10 0 59466 72900.00000 0 -21678190.695 -185830.882 -13436528.338 10 0 59466 73800.00000 0 -23140197.588 -490843.345 -10712914.157 10 0 59466 74700.00000 0 -24279828.007 -617427.487 -7781103.739 10 0 59466 75600.00000 0 -25059115.004 -608534.239 -4698054.460 10 0 59466 76500.00000 0 -25451618.635 -513401.292 -1523680.636 10 0 59466 77400.00000 0 -25443505.076 -385221.241 1680313.900 10 0 59466 78300.00000 0 -25034115.657 -278640.807 4851639.588 10 0 59466 79200.00000 0 -24236001.501 -247197.897 7928637.274 10 0 59466 80100.00000 0 -23074422.117 -340806.026 10851482.275 10 0 59466 81000.00000 0 -21586328.931 -603393.622 13563352.254 10 0 59466 81900.00000 0 -19818876.541 -1070799.173 16011535.667 10 0 59466 82800.00000 0 -17827524.390 -1769012.184 18148458.671 10 0 59466 83700.00000 0 -15673808.718 -2712835.203 19932610.412 10 0 59466 84600.00000 0 -13422878.266 -3905024.268 21329348.743 10 0 59466 85500.00000 0 -11140897.040 -5335944.772 22311570.915 10 0 59467 0.00000 0 -8892422.536 -6983757.981 22860236.669 10 0 59467 900.00000 0 -6737868.644 -8815131.551 22964734.074 10 0 59467 1800.00000 0 -4731158.244 -10786443.961 22623081.479 10 0 59467 2700.00000 0 -2917663.451 -12845434.685 21841962.123 10 0 59467 3600.00000 0 -1332517.073 -14933230.482 20636591.107 10 0 59467 4500.00000 0 634.367 -16986664.467 19030417.391 10 0 59467 5400.00000 0 1070385.914 -18940791.429 17054666.715 10 0 59467 6300.00000 0 1877807.517 -20731494.916 14747734.161 10 0 59467 7200.00000 0 2436147.082 -22298077.500 12154438.013 10 0 59467 8100.00000 0 2770017.144 -23585726.275 9325149.240 10 0 59467 9000.00000 0 2914100.651 -24547750.708 6314813.242 10 0 59467 9900.00000 0 2911431.497 -25147499.290 3181882.902 10 0 59467 10800.00000 0 2811323.297 -25359874.812 -12816.407 10 0 59467 11700.00000 0 2667034.722 -25172384.842 -3207267.721 10 0 59467 12600.00000 0 2533270.690 -24585683.386 -6339466.149 10 0 59467 13500.00000 0 2463625.627 -23613581.059 -9348621.739 10 0 59467 14400.00000 0 2508077.384 -22282523.341 -12176338.127 10 0 59467 15300.00000 0 2710638.133 -20630558.764 -14767743.906 10 0 59467 16200.00000 0 3107261.868 -18705840.168 -17072554.887 10 0 59467 17100.00000 0 3724097.324 -16564721.504 -19046046.879 10 0 59467 18000.00000 0 4576160.424 -14269529.497 -20649920.388 10 0 59467 18900.00000 0 5666482.857 -11886102.779 -21853040.941 10 0 59467 19800.00000 0 6985773.441 -9481200.488 -22632041.183 10 0 59467 20700.00000 0 8512607.429 -7119887.738 -22971773.434 10 0 59467 21600.00000 0 10214137.070 -4863005.966 -22865604.313 10 0 59467 22500.00000 0 12047294.953 -2764832.581 -22315545.805 10 0 59467 23400.00000 0 13960441.093 -871026.496 -21332220.154 10 0 59467 24300.00000 0 15895386.246 783055.838 -19934658.950 10 0 59467 25200.00000 0 17789708.039 2173604.581 -18149939.741 10 0 59467 26100.00000 0 19579264.039 3289109.699 -16012666.594 10 0 59467 27000.00000 0 21200797.342 4130592.515 -13564303.929 10 0 59467 27900.00000 0 22594526.048 4711306.691 -10852375.852 10 0 59467 28800.00000 0 23706608.135 5055921.854 -7929545.989 10 0 59467 29700.00000 0 24491378.211 5199224.959 -4852595.370 10 0 59467 30600.00000 0 24913261.783 5184394.877 -1681318.032 10 0 59467 31500.00000 0 24948286.034 5060923.791 1522643.899 10 0 59467 32400.00000 0 24585122.934 4882274.140 4697002.642 10 0 59467 33300.00000 0 23825620.182 4703371.158 7780040.769 10 0 59467 34200.00000 0 22684797.114 4578038.075 10711816.333 10 0 59467 35100.00000 0 21190305.309 4556483.574 13435333.050 10 0 59467 36000.00000 0 19381376.319 4682948.766 15897652.165 10 0 59467 36900.00000 0 17307300.552 4993614.148 18050923.899 10 0 59467 37800.00000 0 15025501.067 5514855.795 19853318.233 10 0 59467 38700.00000 0 12599282.892 6261925.202 21269836.974 10 0 59467 39600.00000 0 10095352.008 7238109.055 22272991.515 10 0 59467 40500.00000 0 7581207.437 8434404.961 22843333.541 10 0 59467 41400.00000 0 5122514.851 9829727.360 22969828.892 10 0 59467 42300.00000 0 2780570.779 11391635.523 22650067.778 10 0 59467 43200.00000 0 609962.174 13077553.667 21890307.762 10 0 59467 44100.00000 0 -1343482.098 14836432.651 20705348.972 10 0 59467 45000.00000 0 -3044363.657 16610784.168 19118244.169 10 0 59467 45900.00000 0 -4468942.522 18339002.774 17159849.331 10 0 59467 46800.00000 0 -5605870.749 19957879.035 14868223.358 10 0 59467 47700.00000 0 -6456402.592 21405198.856 12287888.422 10 0 59467 48600.00000 0 -7034073.905 22622320.412 9468965.124 10 0 59467 49500.00000 0 -7363865.713 23556620.854 6466199.042 10 0 59467 50400.00000 0 -7480888.383 24163710.194 3337897.562 10 0 59467 51300.00000 0 -7428643.037 24409319.509 144797.629 10 0 59467 52200.00000 0 -7256934.527 24270784.112 -3051113.544 10 0 59467 53100.00000 0 -7019524.892 23738059.260 -6187801.638 10 0 59467 54000.00000 0 -6771627.157 22814225.628 -9204388.748 10 0 59467 54900.00000 0 -6567345.865 21515463.076 -12042333.786 10 0 59467 55800.00000 0 -6457172.931 19870493.590 -14646566.703 10 0 59467 56700.00000 0 -6485644.904 17919516.409 -16966554.616 10 0 59467 57600.00000 0 -6689260.829 15712679.470 -18957279.399 10 0 59467 58500.00000 0 -7094748.817 13308150.637 -20580108.041 10 0 59467 59400.00000 0 -7717754.732 10769868.582 -21803539.387 10 0 59467 60300.00000 0 -8562008.706 8165066.351 -22603813.230 10 0 59467 61200.00000 0 -9619005.151 5561670.020 -22965370.385 10 0 59467 62100.00000 0 -10868210.570 3025679.702 -22881155.136 10 0 59467 63000.00000 0 -12277791.469 618640.888 -22352754.376 10 0 59467 63900.00000 0 -13805832.928 -1604689.666 -21390370.610 10 0 59467 64800.00000 0 -15401997.980 -3598387.413 -20012629.100 10 0 59467 65700.00000 0 -17009559.392 -5327028.746 -18246222.327 10 0 59467 66600.00000 0 -18567719.690 -6766916.235 -16125398.032 10 0 59467 67500.00000 0 -20014122.948 -7906810.125 -13691300.043 10 0 59467 68400.00000 0 -21287453.512 -8748136.239 -10991173.939 10 0 59467 69300.00000 0 -22330012.679 -9304662.337 -8077452.448 10 0 59467 70200.00000 0 -23090165.000 -9601657.246 -5006737.973 10 0 59467 71100.00000 0 -23524550.883 -9674568.944 -1838701.824 10 0 59467 72000.00000 0 -23599971.775 -9567278.102 1365078.177 10 0 59467 72900.00000 0 -23294867.789 -9330001.662 4542318.775 10 0 59467 73800.00000 0 -22600324.720 -9016936.013 7631247.128 10 0 59467 74700.00000 0 -21520567.266 -8683740.333 10571806.973 10 0 59467 75600.00000 0 -20072916.990 -8384967.553 13306831.038 10 0 59467 76500.00000 0 -18287216.187 -8171552.538 15783156.267 10 0 59467 77400.00000 0 -16204741.430 -8088464.507 17952659.697 10 0 59467 78300.00000 0 -13876652.015 -8172623.675 19773194.633 10 0 59467 79200.00000 0 -11362037.996 -8451170.654 21209408.990 10 0 59467 80100.00000 0 -8725649.235 -8940162.127 22233430.025 10 0 59467 81000.00000 0 -6035399.974 -9643748.123 22825402.631 10 0 59467 81900.00000 0 -3359752.565 -10553865.907 22973871.206 10 0 59467 82800.00000 0 -765088.865 -11650463.607 22675998.132 10 0 59467 83700.00000 0 1686822.005 -12902244.521 21937615.148 10 0 59467 84600.00000 0 3941155.121 -14267901.214 20773106.857 10 0 59467 85500.00000 0 5952064.360 -15697787.892 19205128.885 99